NOAA 16 DEB, 41378

Orbit data source: Space-Track

NOAA 16 DEB, 41378 is space debris in SSO originally from a launch on Thu, 21 Sep 2000 UTC launched from the Air Force Western Test Range (AFWTR). Debris objects in space refer to the collection of defunct objects orbiting the Earth. Examples of debris include non-operational satellites, rocket bodies, and fragments generated from explosions, collisions, or faulty payload assembly.

Loading next visibility...
Identifier
41378, 2000-055JX
Orbit
SSO
Country
Flag of USUS
Related business
Manufacturer
Unknown
Mission
Spacecraft
Bus & Motor
Unknown
Mass
Unknown
Launch date (UTC)
2000-09-21 (26 years ago)
Launch vehicle
Unknown
Launch site
Air Force Western Test Range (AFWTR)
Object type
Payload
Rocket body
Debris
Shape & HBR
Unknown shape, 0.1 m
Radar Cross Section
Medium (>0.1 m² and <1 m²)

Expand to show TLE details & history
Last TLE update: 2 days ago

TLE from 2 days ago
0 NOAA 16 DEB
1 41378U 00055JX  26253.26727065  .00001680  00000-0  80730-3 0  9992
2 41378  98.6316 266.1953 0038978 252.3748 107.3170 14.19796230548419
Epoch: 2026-09-10T06:24Z
TLE epoch observation values (Epoch: 2026-09-10T06:24:52.184Z)
Latitude
Longitude
-179.32956°
Altitude
837.418 km
Speed
7.43 km/s
True Right ascension
17h 44m 46s
True Declination
0° 00' 00"
Sunlit
Object was in daylight at epoch
Visualization orbit readout
Latitude
Unknown
Longitude
Unknown
Altitude
Unknown
Speed
Unknown
Apparent Right ascension
Unknown
Apparent Declination
Unknown
Sunlit
N/A
Visualization observer readout
Local Sidereal Time
15:49:02
Azimuth
Unknown
Elevation
Unknown
Doppler factor
Unknown
Orbital elements
Apogee altitude
851.266 km
Perigee altitude
795.128 km
Semi-major axis
7,201.334 km
Eccentricity
0.0039
Inclination
98.6316°
RAAN
266.1953°
Arg. of periapsis
252.3748°
True anomaly
107.74279°
Mean anomaly
107.317°
Eccentric anomaly
107.52996°
Mean motion
3.5516 °/min
Orbital period
101.36 mins
BSTAR
0.0008073
Loading maneuver chart data...
Computing Atmospheric mass density...
Loading historical data...
Loading historical data...
Loading historical data...
Loading historical data...
Loading historical data...
Loading historical data...
Loading historical data...

Documentation

Showing up to 5 results
|